Regional Weather Roundup
Issued by NWS

Home | Current Version | Previous Version | Text Only | Print | Product List | Glossary On
Versions: 1 2 3 4 5 6 7 8 9 10 11 12 13 14 15 16 17 18 19 20 21 22 23 24 25 26 27 28 29 30 31 32 33 34 35 36 37 38 39 40 41 42 43 44 45 46 47 48 49 50
000
ASUS42 KFFC 171703
RWRGA
WEATHER ROUNDUP FOR GEORGIA
NATIONAL WEATHER SERVICE PEACHTREE CITY GA
100 PM EDT WED SEP 17 2014

NOTE: "FAIR" INDICATES FEW OR NO CLOUDS BELOW 12,000 FEET WITH NO
SIGNIFICANT WEATHER AND/OR OBSTRUCTIONS TO VISIBILITY.

* = USE WITH CAUTION. THE STATIONS MARKED WITH AN ASTERISK MAY NOT
REPORT WEATHER SUCH AS PRECIPITATION, FOG, OR THUNDER AND ARE NOT
QUALITY CONTROLLED BY NWS.

THE REMARK "TC" DENOTES TEMPERATURE READING IN DEGREES CELSIUS.

GAZ001>058-171800-
NORTH GEORGIA

CITY           SKY/WX    TMP DP  RH WIND       PRES   REMARKS
ATLANTA        MOSUNNY   82  63  52 W10       29.97S
ATHENS         PTSUNNY   82  66  58 CALM      29.94F
ROME           NOT AVBL


CITY           SKY/WX    TMP DP  RH WIND       PRES   REMARKS
DALTON*        PTSUNNY   72  61  68 NW6       29.99R
LAWRENCEVILLE* MOSUNNY   79  59  50 W5        29.96F
MARIETTA       MOSUNNY   80  64  59 W14       29.98R
KENNESAW*      SUNNY     75  61  60 NW10      29.99S
$$

GAZ059>098-102>109-171800-
CENTRAL GEORGIA

CITY           SKY/WX    TMP DP  RH WIND       PRES   REMARKS
AUGUSTA-BUSH   SUNNY     80  70  71 NW3       29.91F
COLUMBUS       MOSUNNY   84  67  56 CALM      29.94F
MACON          NOT AVBL
ROBINS AFB     MOSUNNY   85  69  58 NW5       29.93F


CITY           SKY/WX    TMP DP  RH WIND       PRES   REMARKS
MILLEDGEVILLE* SUNNY     82  72  69 W5        29.93F
$$

GAZ099>101-110>166-171800-
SOUTH GEORGIA

CITY           SKY/WX    TMP DP  RH WIND       PRES   REMARKS
SAVANNAH       NOT AVBL
VALDOSTA       NOT AVBL
ALMA           SUNNY     88  70  55 VRB5      29.92F HX  93
FT STEWART     MOSUNNY   84  71  64 E3        29.90F
ALBANY         PTSUNNY   86  71  60 E6        29.95F HX  91
HUNTER AFB     SUNNY     85  73  67 VRB1      29.89F HX  92
MOODY AFB      MOSUNNY   85  72  63 NE5       29.93F HX  91
BRUNSWICK      SUNNY     86  68  54 CALM      29.92F


CITY           SKY/WX    TMP DP  RH WIND       PRES   REMARKS
BAINBRIDGE*    MOSUNNY   90  75  62 E3        29.95S HX 100
MOULTRIE*      SUNNY     82  72  69 N5        29.95F
VIDALIA*       SUNNY     86  70  58 N3        29.93F HX  90
WAYCROSS*      SUNNY     88  76  67 CALM      29.93F HX  99
DOUGLAS*       SUNNY     88  70  55 CALM      29.95F HX  92
$$


USA.gov is the U.S. government's official web portal to all federal, state and local government web resources and services.